AirNav   Air Wisconsin pilot careers
 
 1574 users online  

60F Seymour Municipal Airport
Seymour, Texas, USA

GOING TO SEYMOUR?


FAA INFORMATION EFFECTIVE 11 OCTOBER 2018

Location

FAA Identifier: 60F
Lat/Long: 33-38-54.6600N / 099-15-40.7000W
33-38.911000N / 099-15.678333W
33.6485167 / -99.2613056
(estimated)
Elevation: 1344 ft. / 409.7 m (surveyed)
Variation: 07E (1995)
From city: 3 miles N of SEYMOUR, TX
Time zone: UTC -5 (UTC -6 during Standard Time)
Zip code: 76380

Airport Operations

Airport use: Open to the public
Activation date: 10/1965
Control tower: no
ARTCC: FORT WORTH CENTER
FSS: FORT WORTH FLIGHT SERVICE STATION
NOTAMs facility: FTW (NOTAM-D service available)
Attendance: UNATNDD
Wind indicator: lighted
Segmented circle: yes
Lights: SS-SR
Beacon: white-green (lighted land airport)
Operates sunset to sunrise.

Airport Communications

CTAF: 122.9
  • APCH/DEP SERVICE PROVIDED BY FORT WORTH ARTCC ON FREQS 133.5/350.35 (WICHITA FALLS NR 2 RCAG).

Nearby radio navigation aids

VOR radial/distance  VOR name  Freq  Var
SPSr229/39.0WICHITA FALLS VORTAC112.7010E

 
NDB name  Hdg/Dist  Freq  Var  ID
SCOTLAND253/39.434405ESKB ... -.- -...

Airport Services

Parking: tiedowns
Airframe service: NONE
Powerplant service: NONE
Bottled oxygen: NONE
Bulk oxygen: NONE

Runway Information

Runway 17/35

Dimensions: 4300 x 50 ft. / 1311 x 15 m
Surface: asphalt, in poor condition
HVY VEGETATION AND CRACKING.
Weight bearing capacity: 
Single wheel: 4.0
Runway edge lights: medium intensity
Runway edge markings: 17/35 NSTD NPI MARKINGS. NRS 50 FT TALL; MARKINGS FADED.
RUNWAY 17  RUNWAY 35
Latitude: 33-39.265333N33-38.556667N
Longitude: 099-15.678333W099-15.678333W
Elevation: 1344.0 ft.1337.9 ft.
Gradient: 0.2%0.2%
Traffic pattern: leftleft
Runway heading: 173 magnetic, 180 true353 magnetic, 000 true
Markings: NSTD, in poor conditionNSTD, in poor condition
Touchdown point: yes, no lightsyes, no lights
Obstructions: 4 ft. fence, lighted, 200 ft. from runway, 202 ft. right of centerline
+4 FT FENCE 180 FT L & 203 FT R AT RY THLD.
4 ft. fence, lighted, 200 ft. from runway, 199 ft. left of centerline
+4 FT FENCE 203 FT L AT RY THLD; 20 FT HANGER 87 FT FM THLD TO 172 FT FM THLD, 246 FT R.

Airport Ownership and Management from official FAA records

Ownership: Publicly-owned
Owner: CITY OF SEYMOUR
PO BOX 31
SEYMOUR, TX 76380
Phone 940-889-3148
Manager: STEVE BIEDEREMANN
PO BOX 31
SEYMOUR, TX 76380
Phone 940-889-3148
CITY MANAGER

Airport Operational Statistics

Aircraft based on the field: 10
Single engine airplanes: 9
Multi engine airplanes: 1
    
Aircraft operations: avg 63/week *
67% local general aviation
33% transient general aviation
* for 12-month period ending 28 February 2018

Instrument Procedures

NOTE: All procedures below are presented as PDF files. If you need a reader for these files, you should download the free Adobe Reader.

NOT FOR NAVIGATION. Please procure official charts for flight.
FAA instrument procedures published for use from 11 October 2018 at 0901Z to 8 November 2018 at 0900Z.

 
IAPs - Instrument Approach Procedures
RNAV (GPS) RWY 17   download (150KB)
NOTE: Special Take-Off Minimums/Departure Procedures apply   download (113KB)

Other nearby airports with instrument procedures:

KONY - Olney Municipal Airport (28 nm SE)
F05 - Wilbarger County Airport (35 nm N)
15F - Haskell Municipal Airport (36 nm SW)
F14 - Wichita Valley Airport (37 nm NE)
KCWC - Kickapoo Downtown Airport (41 nm E)
 
Loc | Ops | Rwys | IFR | FBO | Links
Com | Nav | Svcs | Stats | Notes


 
Area around 60F (Seymour Municipal Airport)
 
Road maps at: MapQuest Bing Google
 
Aerial photo
WARNING: Photo may not be current or correct
Aerial photo of 60F (Seymour Municipal Airport)
Photo by Victor Estrada
Taken in October 2007

Do you have a better or more recent aerial photo of Seymour Municipal Airport that you would like to share? If so, please send us your photo.

 
Sectional chart

 
Airport distance calculator
Flying to Seymour Municipal Airport? Find the distance to fly.

From to 60F

Sunrise and sunset
Times for 15-Oct-2018
 Local
(UTC-5)
 Zulu
(UTC)
Morning civil twilight07:1812:18
Sunrise07:4312:43
Sunset19:0300:03
Evening civil twilight19:2800:28

Current date and time
Zulu (UTC)  15-Oct-2018 18:18:55
Local (UTC-5)  15-Oct-2018 13:18:55
 
METAR
KF05 
35nm N 
151755Z AUTO 01014G23KT 10SM SCT110 07/00 A3041 RMK AO1 6//// T00731001 10213 20027
KCWC 
40nm E 
151755Z AUTO 36016G28KT 10SM CLR 07/00 A3039 RMK AO2 T00721003 10072 20033
KSPS 
43nm NE 
151752Z 01019KT 10SM BKN100 08/M01 A3037 RMK AO2 PK WND 02027/1715 SLP287 T00781006 10078 20033 58001
KFDR 
44nm N 
151753Z AUTO 36021G28KT 10SM SCT100 07/00 A3037 RMK AO2 PK WND 01028/1750 SLP287 6//// T00720000 10078 20022 58002
KRPH 
48nm SE 
151750Z AUTO 34013G21KT 10SM -RA SCT021 05/03 A3034 RMK AO2 T00510028 10051 20021
TAF
KSPS 
43nm NE 
151720Z 1518/1618 36020G28KT P6SM SCT025 BKN110 TEMPO 1518/1522 BKN025 BKN110 FM160000 36012KT P6SM BKN080 FM160900 01009KT P6SM -RA OVC050
NOTAMs
Click for the latest NOTAMs
NOTAMs are issued by the DoD/FAA and will open in a separate window not controlled by AirNav.

 

 
 

Would you like to see your business listed on this page?

 If your business provides an interesting product or service to pilots, flight crews, aircraft, or users of the Seymour Municipal Airport, you should consider listing it here.  To start the listing process, click on the button below
 
Add a business
 

Other Pages about Seymour Municipal Airport

Update a link
 
Copyright © AirNav, LLC. All rights reserved. Privacy Policy  Contact